Location: Newark
(33.6439°N, 114.9881°W)
Time: 18:24:58
(UTC+00:00)

Tiros 1 - Pass Details

Date: 29 July 2019
Orbit: 631 x 664 km, 48.4° (Epoch: 24 August)

Event Time Altitude Azimuth Distance (km) Brightness Sun altitude
Rises 19:06:53 0° 298° (WNW) 2,983 10.4 72.6°
Reaches altitude 10° 19:10:24 10° 325° (NW) 2,077 9.7 73.0°
Maximum altitude 19:12:50 14° 355° (N) 1,838 9.5 73.3°
Drops below altitude 10° 19:15:18 10° 26° (NNE) 2,082 9.8 73.5°
Sets 19:18:49 0° 53° (NE) 2,995 10.5 73.8°
